BAW61XM LIPZ-EGLL

Flight info

Callsign BAW61XM
Flight time 1h 50m
Altitude 34000
Route ROKIB8X ROKIB DCT RESIA/N0447F360 DCT ELMUR/N0451F380 DCT RIPUS DCT DITON DCT HOC DCT LUL DCT RLP DCT ROTSI DCT KOTUN DCT NINAL DCT ABNUR DCT DIMAL DCT ALESO ALESO1H
Aircraft A320/M-SDE3FGHIKRWXY/S

Departure

Time 2026-05-06 17:49
Airport Venice Marco Polo Airport (LIPZ)

Arrival

Time 2026-05-06 19:39
Airport London Heathrow Airport (EGLL)
Time Latitude Longitude Altitude Speed Heading
2026-05-06 16:40 45.50121 12.33983 16 ft 0 kts 312°
2026-05-06 17:14 45.50121 12.33984 16 ft 0 kts 312°
2026-05-06 17:40 45.50115 12.33992 16 ft 3 kts 312°
2026-05-06 17:40 45.50102 12.34014 18 ft 3 kts 312°
2026-05-06 17:40 45.50090 12.34031 16 ft 3 kts 311°
2026-05-06 17:40 45.50079 12.34053 16 ft 3 kts 282°
2026-05-06 17:41 45.50080 12.34076 15 ft 3 kts 229°
2026-05-06 17:41 45.50094 12.34095 18 ft 3 kts 222°
2026-05-06 17:41 45.50095 12.34098 18 ft 0 kts 222°
2026-05-06 17:44 45.50089 12.34090 18 ft 4 kts 222°
2026-05-06 17:44 45.50044 12.34060 15 ft 11 kts 188°
2026-05-06 17:45 45.49949 12.34062 14 ft 16 kts 178°
2026-05-06 17:45 45.49845 12.33977 14 ft 19 kts 221°
2026-05-06 17:45 45.49738 12.33842 17 ft 21 kts 222°
2026-05-06 17:45 45.49626 12.33700 16 ft 22 kts 221°
2026-05-06 17:46 45.49519 12.33602 17 ft 14 kts 165°
2026-05-06 17:46 45.49485 12.33639 16 ft 0 kts 135°
2026-05-06 17:47 45.49475 12.33653 16 ft 6 kts 134°
2026-05-06 17:47 45.49434 12.33721 15 ft 13 kts 124°
2026-05-06 17:47 45.49454 12.33827 15 ft 0 kts 41°
2026-05-06 17:48 45.49472 12.33850 14 ft 20 kts 42°
2026-05-06 17:48 45.49775 12.34240 13 ft 93 kts 42°
2026-05-06 17:48 45.50367 12.35002 14 ft 141 kts 42°
2026-05-06 17:48 45.50948 12.35777 202 ft 154 kts 44°
2026-05-06 17:49 45.51950 12.37115 1013 ft 148 kts 46°
2026-05-06 17:49 45.52713 12.38161 1349 ft 161 kts 46°
2026-05-06 17:49 45.53431 12.39511 1482 ft 189 kts 72°
2026-05-06 17:49 45.53597 12.41423 1949 ft 204 kts 101°
2026-05-06 17:50 45.53372 12.43438 2739 ft 207 kts 101°
2026-05-06 17:50 45.53152 12.45501 3445 ft 213 kts 101°
2026-05-06 17:50 45.52934 12.47607 4153 ft 217 kts 101°
2026-05-06 17:50 45.52708 12.49760 4874 ft 221 kts 104°
2026-05-06 17:51 45.52083 12.51718 5557 ft 218 kts 137°
2026-05-06 17:51 45.50853 12.52872 6283 ft 212 kts 168°
2026-05-06 17:51 45.49893 12.53045 6736 ft 209 kts 188°
2026-05-06 17:51 45.48057 12.52250 7743 ft 207 kts 203°
2026-05-06 17:52 45.47212 12.51635 8210 ft 207 kts 219°
2026-05-06 17:52 45.46359 12.49987 8927 ft 212 kts 249°
2026-05-06 17:52 45.46299 12.47780 9290 ft 242 kts 281°
2026-05-06 17:52 45.46809 12.45373 9637 ft 267 kts 283°
2026-05-06 17:53 45.47393 12.42762 10071 ft 285 kts 284°
2026-05-06 17:53 45.48029 12.39933 10313 ft 309 kts 284°
2026-05-06 17:53 45.48700 12.36920 10633 ft 327 kts 284°
2026-05-06 17:53 45.49401 12.33755 11274 ft 333 kts 283°
2026-05-06 17:54 45.50096 12.30599 11990 ft 336 kts 283°
2026-05-06 17:54 45.50796 12.27394 12711 ft 340 kts 283°
2026-05-06 17:54 45.51497 12.24154 13411 ft 344 kts 283°
2026-05-06 17:54 45.52213 12.20831 14092 ft 348 kts 283°
2026-05-06 17:55 45.52933 12.17514 14774 ft 351 kts 283°
2026-05-06 17:55 45.53697 12.14036 15476 ft 354 kts 283°
2026-05-06 17:55 45.54394 12.10865 16080 ft 356 kts 283°
2026-05-06 17:55 45.55134 12.07486 16740 ft 358 kts 282°
2026-05-06 17:56 45.55877 12.04087 17421 ft 360 kts 282°
2026-05-06 17:56 45.56624 12.00666 18107 ft 362 kts 283°
2026-05-06 17:56 45.57646 11.97345 18703 ft 371 kts 294°
2026-05-06 17:56 45.59170 11.94341 19293 ft 382 kts 307°
2026-05-06 17:57 45.61202 11.91784 19888 ft 394 kts 319°
2026-05-06 17:57 45.63631 11.89846 20470 ft 404 kts 328°
2026-05-06 17:57 45.66182 11.88104 21029 ft 407 kts 328°
2026-05-06 17:57 45.68746 11.86356 21566 ft 411 kts 328°
2026-05-06 17:58 45.71332 11.84589 22100 ft 414 kts 328°
2026-05-06 17:58 45.73947 11.82798 22659 ft 418 kts 327°
2026-05-06 17:58 45.76580 11.80984 23125 ft 422 kts 327°
2026-05-06 17:58 45.79202 11.79168 23568 ft 426 kts 327°
2026-05-06 17:59 45.81928 11.77272 24017 ft 429 kts 327°
2026-05-06 17:59 45.84567 11.75437 24444 ft 432 kts 327°
2026-05-06 17:59 45.87306 11.73533 24885 ft 435 kts 326°
2026-05-06 17:59 45.89918 11.71469 25284 ft 430 kts 319°
2026-05-06 18:00 45.92285 11.68820 25664 ft 423 kts 308°
2026-05-06 18:00 45.94265 11.65760 26053 ft 415 kts 300°
2026-05-06 18:00 45.95861 11.62361 26451 ft 408 kts 291°
2026-05-06 18:00 45.97097 11.58820 26841 ft 406 kts 287°
2026-05-06 18:01 45.98364 11.55051 27219 ft 409 kts 287°
2026-05-06 18:01 45.99602 11.51363 27601 ft 411 kts 287°
2026-05-06 18:01 46.00841 11.47677 27989 ft 413 kts 287°
2026-05-06 18:01 46.02086 11.43985 28371 ft 415 kts 287°
2026-05-06 18:02 46.03345 11.40251 28748 ft 417 kts 287°
2026-05-06 18:02 46.04613 11.36488 29135 ft 418 kts 287°
2026-05-06 18:02 46.05886 11.32690 29495 ft 420 kts 287°
2026-05-06 18:02 46.07151 11.28907 29853 ft 423 kts 287°
2026-05-06 18:03 46.08427 11.25091 30316 ft 421 kts 287°
2026-05-06 18:03 46.09698 11.21294 30788 ft 421 kts 287°
2026-05-06 18:03 46.10958 11.17518 31262 ft 420 kts 287°
2026-05-06 18:03 46.12212 11.13761 31704 ft 419 kts 287°
2026-05-06 18:04 46.13469 11.09983 32150 ft 418 kts 286°
2026-05-06 18:04 46.14724 11.06204 32593 ft 417 kts 286°
2026-05-06 18:04 46.15973 11.02436 33054 ft 417 kts 286°
2026-05-06 18:04 46.17223 10.98655 33503 ft 416 kts 286°
2026-05-06 18:05 46.18463 10.94894 33877 ft 416 kts 286°
2026-05-06 18:05 46.19705 10.91114 33953 ft 417 kts 286°
2026-05-06 18:05 46.22195 10.83537 33955 ft 418 kts 286°
2026-05-06 18:06 46.24678 10.75983 33949 ft 420 kts 286°
2026-05-06 18:06 46.27174 10.68360 33945 ft 420 kts 286°
2026-05-06 18:07 46.29668 10.60735 33939 ft 419 kts 286°
2026-05-06 18:07 46.32143 10.53119 33919 ft 418 kts 286°
2026-05-06 18:08 46.34606 10.45507 33969 ft 418 kts 286°
2026-05-06 18:08 46.37069 10.37873 33957 ft 418 kts 286°
2026-05-06 18:09 46.39532 10.30248 33935 ft 417 kts 286°
2026-05-06 18:09 46.41971 10.22678 33939 ft 418 kts 286°
2026-05-06 18:10 46.44419 10.15025 33946 ft 419 kts 286°
2026-05-06 18:10 46.46878 10.07366 33977 ft 420 kts 288°
2026-05-06 18:11 46.50284 10.00292 33965 ft 437 kts 302°
2026-05-06 18:11 46.54320 9.93665 33956 ft 437 kts 303°
2026-05-06 18:12 46.58333 9.87080 33948 ft 437 kts 303°
2026-05-06 18:12 46.62388 9.80410 33948 ft 437 kts 303°
2026-05-06 18:13 46.66372 9.73806 33977 ft 437 kts 303°
2026-05-06 18:13 46.70383 9.67132 33946 ft 437 kts 303°
2026-05-06 18:14 46.74371 9.60495 33923 ft 437 kts 303°
2026-05-06 18:14 46.78401 9.53763 33916 ft 437 kts 303°
2026-05-06 18:15 46.82346 9.47185 33904 ft 437 kts 303°
2026-05-06 18:15 46.86377 9.40414 33928 ft 438 kts 303°
2026-05-06 18:16 46.90369 9.33699 33902 ft 438 kts 303°
2026-05-06 18:16 46.94373 9.26961 33897 ft 439 kts 303°
2026-05-06 18:17 46.98373 9.20197 33907 ft 440 kts 303°
2026-05-06 18:17 47.02377 9.13423 33908 ft 440 kts 304°
2026-05-06 18:18 47.06396 9.06609 33945 ft 440 kts 304°
2026-05-06 18:18 47.10370 8.99847 33920 ft 441 kts 304°
2026-05-06 18:19 47.14339 8.92937 33915 ft 438 kts 299°
2026-05-06 18:19 47.17114 8.85194 33909 ft 424 kts 284°
2026-05-06 18:20 47.19151 8.77116 33901 ft 425 kts 284°
2026-05-06 18:20 47.21230 8.68975 33936 ft 426 kts 284°
2026-05-06 18:21 47.23303 8.60820 33908 ft 427 kts 284°
2026-05-06 18:21 47.25374 8.52611 33906 ft 428 kts 284°
2026-05-06 18:22 47.27449 8.44369 33905 ft 429 kts 284°
2026-05-06 18:22 47.29523 8.36132 33908 ft 429 kts 284°
2026-05-06 18:23 47.31587 8.27882 33926 ft 430 kts 284°
2026-05-06 18:23 47.33689 8.19457 33893 ft 433 kts 285°
2026-05-06 18:24 47.35760 8.11115 33897 ft 434 kts 284°
2026-05-06 18:24 47.37830 8.02696 33892 ft 435 kts 284°
2026-05-06 18:25 47.39866 7.94386 33899 ft 435 kts 284°
2026-05-06 18:25 47.41930 7.85987 33907 ft 436 kts 284°
2026-05-06 18:26 47.43977 7.77621 33913 ft 436 kts 284°
2026-05-06 18:26 47.46020 7.69201 33911 ft 436 kts 284°
2026-05-06 18:27 47.47663 7.60632 33913 ft 432 kts 278°
2026-05-06 18:27 47.49100 7.52033 33939 ft 432 kts 279°
2026-05-06 18:28 47.50538 7.43377 33914 ft 433 kts 279°
2026-05-06 18:28 47.51990 7.34605 33907 ft 434 kts 279°
2026-05-06 18:29 47.53405 7.26023 33906 ft 434 kts 279°
2026-05-06 18:29 47.54836 7.17325 33907 ft 434 kts 279°
2026-05-06 18:30 47.56261 7.08632 33915 ft 435 kts 280°
2026-05-06 18:30 47.57673 6.99928 33908 ft 436 kts 280°
2026-05-06 18:31 47.59095 6.91111 33907 ft 437 kts 280°
2026-05-06 18:31 47.60503 6.82357 33905 ft 437 kts 280°
2026-05-06 18:32 47.61896 6.73640 33905 ft 438 kts 280°
2026-05-06 18:32 47.63291 6.64854 33911 ft 438 kts 280°
2026-05-06 18:33 47.64684 6.56038 33912 ft 439 kts 280°
2026-05-06 18:33 47.66074 6.47215 33911 ft 440 kts 280°
2026-05-06 18:34 47.67455 6.38414 33910 ft 439 kts 280°
2026-05-06 18:34 47.68821 6.29650 33922 ft 439 kts 281°
2026-05-06 18:35 47.70489 6.20913 33915 ft 441 kts 285°
2026-05-06 18:35 47.72427 6.12281 33907 ft 441 kts 286°
2026-05-06 18:36 47.74357 6.03637 33913 ft 441 kts 285°
2026-05-06 18:36 47.76202 5.94941 33909 ft 441 kts 285°
2026-05-06 18:37 47.77704 5.87697 33920 ft 441 kts 285°
2026-05-06 18:37 47.79801 5.77573 33919 ft 441 kts 285°
2026-05-06 18:38 47.81616 5.68844 33911 ft 442 kts 285°
2026-05-06 18:38 47.83121 5.61586 33915 ft 442 kts 285°
2026-05-06 18:39 47.84927 5.52849 33918 ft 442 kts 285°
2026-05-06 18:40 47.87915 5.38308 33923 ft 442 kts 285°
2026-05-06 18:40 47.89403 5.31024 33933 ft 442 kts 286°
2026-05-06 18:41 47.92093 5.22809 33923 ft 444 kts 304°
2026-05-06 18:41 47.96156 5.15841 33916 ft 445 kts 311°
2026-05-06 18:42 48.00328 5.08998 33923 ft 446 kts 311°
2026-05-06 18:42 48.04448 5.02167 33931 ft 445 kts 311°
2026-05-06 18:43 48.08582 4.95292 33938 ft 445 kts 311°
2026-05-06 18:43 48.12720 4.88419 33929 ft 445 kts 311°
2026-05-06 18:44 48.16861 4.81524 33935 ft 445 kts 311°
2026-05-06 18:44 48.21001 4.74613 33929 ft 445 kts 311°
2026-05-06 18:45 48.25096 4.67739 33928 ft 445 kts 311°
2026-05-06 18:45 48.29217 4.60818 33939 ft 444 kts 311°
2026-05-06 18:46 48.33334 4.53910 33935 ft 444 kts 311°
2026-05-06 18:46 48.37441 4.47001 33931 ft 443 kts 310°
2026-05-06 18:47 48.41537 4.40060 33921 ft 443 kts 310°
2026-05-06 18:47 48.45621 4.33115 33925 ft 443 kts 310°
2026-05-06 18:48 48.49675 4.26207 33922 ft 443 kts 311°
2026-05-06 18:48 48.53754 4.19256 33935 ft 442 kts 311°
2026-05-06 18:49 48.57829 4.12290 33948 ft 442 kts 311°
2026-05-06 18:49 48.61888 4.05328 33944 ft 442 kts 310°
2026-05-06 18:50 48.65917 3.98406 33941 ft 441 kts 310°
2026-05-06 18:50 48.69965 3.91414 33946 ft 441 kts 310°
2026-05-06 18:51 48.74043 3.84491 33943 ft 441 kts 313°
2026-05-06 18:51 48.78408 3.77953 33940 ft 441 kts 315°
2026-05-06 18:52 48.82838 3.71611 33938 ft 441 kts 315°
2026-05-06 18:52 48.87252 3.65145 33935 ft 441 kts 314°
2026-05-06 18:53 48.91614 3.58600 33937 ft 441 kts 314°
2026-05-06 18:53 48.95966 3.52036 33938 ft 441 kts 315°
2026-05-06 18:54 49.00321 3.45469 33948 ft 440 kts 314°
2026-05-06 18:54 49.04627 3.38956 33947 ft 439 kts 315°
2026-05-06 18:55 49.08964 3.32389 33955 ft 439 kts 314°
2026-05-06 18:55 49.13292 3.25838 33959 ft 438 kts 315°
2026-05-06 18:56 49.17612 3.19278 33955 ft 437 kts 314°
2026-05-06 18:56 49.21889 3.12752 33947 ft 437 kts 314°
2026-05-06 18:57 49.26185 3.06177 33943 ft 437 kts 314°
2026-05-06 18:57 49.30487 2.99585 33954 ft 437 kts 314°
2026-05-06 18:58 49.34783 2.92987 33945 ft 438 kts 314°
2026-05-06 18:58 49.39080 2.86376 33944 ft 437 kts 314°
2026-05-06 18:59 49.43368 2.79752 33951 ft 437 kts 314°
2026-05-06 18:59 49.47602 2.73179 33945 ft 437 kts 314°
2026-05-06 19:00 49.51885 2.66532 33952 ft 437 kts 315°
2026-05-06 19:00 49.56146 2.59878 33973 ft 436 kts 314°
2026-05-06 19:01 49.60415 2.53278 33980 ft 434 kts 319°
2026-05-06 19:01 49.65181 2.47582 33974 ft 433 kts 323°
2026-05-06 19:02 49.69937 2.42017 33969 ft 432 kts 322°
2026-05-06 19:02 49.74725 2.36387 33966 ft 432 kts 322°
2026-05-06 19:03 49.79504 2.30753 33971 ft 432 kts 322°
2026-05-06 19:03 49.84249 2.25164 33970 ft 431 kts 322°
2026-05-06 19:04 49.89010 2.19519 33969 ft 430 kts 322°
2026-05-06 19:04 49.93756 2.13876 33976 ft 430 kts 322°
2026-05-06 19:05 49.98540 2.08186 33972 ft 430 kts 322°
2026-05-06 19:05 50.03278 2.02529 33974 ft 430 kts 322°
2026-05-06 19:06 50.08009 1.96859 33973 ft 430 kts 322°
2026-05-06 19:06 50.12751 1.91157 33975 ft 430 kts 322°
2026-05-06 19:07 50.17440 1.85390 33973 ft 429 kts 317°
2026-05-06 19:07 50.21706 1.78954 33986 ft 429 kts 316°
2026-05-06 19:08 50.25971 1.72453 33989 ft 429 kts 316°
2026-05-06 19:08 50.30231 1.65930 33993 ft 429 kts 315°
2026-05-06 19:09 50.34493 1.59391 33993 ft 429 kts 316°
2026-05-06 19:09 50.38754 1.52860 33664 ft 429 kts 315°
2026-05-06 19:09 50.40893 1.49579 32953 ft 429 kts 315°
2026-05-06 19:10 50.42949 1.46416 32447 ft 424 kts 315°
2026-05-06 19:10 50.45027 1.43209 31903 ft 420 kts 314°
2026-05-06 19:10 50.46747 1.40543 31456 ft 418 kts 314°
2026-05-06 19:10 50.48676 1.37552 30955 ft 415 kts 314°
2026-05-06 19:11 50.50691 1.34371 30414 ft 412 kts 313°
2026-05-06 19:11 50.52649 1.31126 29841 ft 410 kts 311°
2026-05-06 19:11 50.54572 1.27831 29259 ft 406 kts 311°
2026-05-06 19:11 50.56459 1.24546 28720 ft 403 kts 311°
2026-05-06 19:12 50.58331 1.21305 28187 ft 399 kts 312°
2026-05-06 19:12 50.60239 1.18156 27654 ft 396 kts 313°
2026-05-06 19:12 50.62180 1.15079 27123 ft 394 kts 314°
2026-05-06 19:12 50.64124 1.12062 26601 ft 392 kts 314°
2026-05-06 19:13 50.66068 1.09059 26086 ft 391 kts 314°
2026-05-06 19:13 50.67996 1.06056 25573 ft 389 kts 314°
2026-05-06 19:13 50.69910 1.03055 25092 ft 388 kts 314°
2026-05-06 19:13 50.71813 1.00051 24612 ft 386 kts 314°
2026-05-06 19:14 50.73705 0.97043 24137 ft 385 kts 314°
2026-05-06 19:14 50.75562 0.94082 23688 ft 384 kts 314°
2026-05-06 19:14 50.77438 0.91092 23190 ft 382 kts 314°
2026-05-06 19:14 50.79303 0.88120 22734 ft 379 kts 314°
2026-05-06 19:15 50.81148 0.85169 22279 ft 376 kts 313°
2026-05-06 19:15 50.82973 0.82242 21828 ft 372 kts 313°
2026-05-06 19:15 50.84809 0.79300 21352 ft 369 kts 314°
2026-05-06 19:15 50.86606 0.76421 20885 ft 366 kts 314°
2026-05-06 19:16 50.88393 0.73557 20406 ft 364 kts 313°
2026-05-06 19:16 50.90162 0.70714 19922 ft 361 kts 314°
2026-05-06 19:16 50.91923 0.67883 19417 ft 359 kts 314°
2026-05-06 19:16 50.93685 0.65042 18923 ft 356 kts 314°
2026-05-06 19:17 50.95418 0.62244 18416 ft 355 kts 314°
2026-05-06 19:17 50.97139 0.59462 17871 ft 353 kts 314°
2026-05-06 19:17 50.98858 0.56682 17173 ft 354 kts 314°
2026-05-06 19:17 51.00564 0.53922 16520 ft 355 kts 314°
2026-05-06 19:18 51.02292 0.51123 15860 ft 355 kts 314°
2026-05-06 19:18 51.04019 0.48320 15187 ft 355 kts 314°
2026-05-06 19:18 51.05741 0.45522 14538 ft 356 kts 314°
2026-05-06 19:18 51.07479 0.42718 13978 ft 353 kts 315°
2026-05-06 19:19 51.09249 0.39965 13346 ft 351 kts 316°
2026-05-06 19:19 51.10986 0.37329 12804 ft 346 kts 316°
2026-05-06 19:19 51.12730 0.34706 12208 ft 344 kts 316°
2026-05-06 19:19 51.14450 0.32117 11879 ft 334 kts 316°
2026-05-06 19:20 51.16099 0.29620 11749 ft 320 kts 316°
2026-05-06 19:20 51.17523 0.26946 11339 ft 316 kts 299°
2026-05-06 19:20 51.18422 0.23719 10864 ft 315 kts 292°
2026-05-06 19:20 51.19205 0.20481 10428 ft 313 kts 291°
2026-05-06 19:21 51.19969 0.17286 10269 ft 302 kts 291°
2026-05-06 19:21 51.20701 0.14210 10146 ft 291 kts 291°
2026-05-06 19:21 51.21404 0.11238 10008 ft 281 kts 291°
2026-05-06 19:21 51.22075 0.08393 9741 ft 278 kts 291°
2026-05-06 19:22 51.22755 0.05505 9386 ft 276 kts 291°
2026-05-06 19:22 51.23202 0.03607 9146 ft 274 kts 291°
2026-05-06 19:22 51.24092 -0.00181 8712 ft 272 kts 291°
2026-05-06 19:22 51.24750 -0.02986 8586 ft 262 kts 291°
2026-05-06 19:23 51.25165 -0.04784 8499 ft 257 kts 291°
2026-05-06 19:23 51.25773 -0.07434 8365 ft 249 kts 291°
2026-05-06 19:23 51.26565 -0.10873 8153 ft 241 kts 291°
2026-05-06 19:23 51.27132 -0.13336 8024 ft 238 kts 291°
2026-05-06 19:24 51.27700 -0.15838 7990 ft 237 kts 291°
2026-05-06 19:24 51.28270 -0.18343 8001 ft 239 kts 291°
2026-05-06 19:24 51.28847 -0.20861 8004 ft 238 kts 291°
2026-05-06 19:24 51.29233 -0.22570 8000 ft 238 kts 291°
2026-05-06 19:25 51.29979 -0.25879 7800 ft 236 kts 291°
2026-05-06 19:25 51.30345 -0.27498 7601 ft 236 kts 291°
2026-05-06 19:25 51.30962 -0.30207 7284 ft 235 kts 291°
2026-05-06 19:25 51.31474 -0.32476 7072 ft 233 kts 291°
2026-05-06 19:26 51.32019 -0.34905 6997 ft 232 kts 291°
2026-05-06 19:26 51.32567 -0.37336 6997 ft 236 kts 291°
2026-05-06 19:26 51.33124 -0.39777 7029 ft 236 kts 291°
2026-05-06 19:26 51.33686 -0.42244 7027 ft 236 kts 291°
2026-05-06 19:27 51.34282 -0.44838 7025 ft 237 kts 291°
2026-05-06 19:27 51.34828 -0.47217 7024 ft 237 kts 291°
2026-05-06 19:27 51.35391 -0.49665 7024 ft 237 kts 291°
2026-05-06 19:27 51.35984 -0.52255 7027 ft 236 kts 291°
2026-05-06 19:28 51.36528 -0.54631 7022 ft 237 kts 291°
2026-05-06 19:28 51.37094 -0.57112 7027 ft 236 kts 291°
2026-05-06 19:28 51.37654 -0.59571 7026 ft 237 kts 291°
2026-05-06 19:28 51.38217 -0.62049 7024 ft 236 kts 291°
2026-05-06 19:29 51.38781 -0.64528 7028 ft 237 kts 291°
2026-05-06 19:29 51.39342 -0.66996 7027 ft 236 kts 291°
2026-05-06 19:29 51.39890 -0.69478 7023 ft 235 kts 287°
2026-05-06 19:29 51.40040 -0.72050 6766 ft 235 kts 269°
2026-05-06 19:30 51.39911 -0.74669 6484 ft 235 kts 266°
2026-05-06 19:30 51.39752 -0.77272 6155 ft 235 kts 266°
2026-05-06 19:30 51.39585 -0.79874 5865 ft 233 kts 265°
2026-05-06 19:30 51.39415 -0.82439 5560 ft 233 kts 266°
2026-05-06 19:31 51.39242 -0.85013 5249 ft 232 kts 266°
2026-05-06 19:31 51.39086 -0.87593 4912 ft 232 kts 268°
2026-05-06 19:31 51.40066 -0.92191 4600 ft 212 kts 301°
2026-05-06 19:32 51.40770 -0.94215 4461 ft 204 kts 304°
2026-05-06 19:32 51.41785 -0.95641 4321 ft 192 kts 341°
2026-05-06 19:32 51.43059 -0.95707 4190 ft 182 kts 20°
2026-05-06 19:32 51.44043 -0.94485 4085 ft 184 kts 49°
2026-05-06 19:33 51.44795 -0.92774 3991 ft 186 kts 55°
2026-05-06 19:33 51.45475 -0.91061 3995 ft 186 kts 56°
2026-05-06 19:33 51.46166 -0.89276 3997 ft 186 kts 56°
2026-05-06 19:33 51.46835 -0.87544 4001 ft 186 kts 57°
2026-05-06 19:34 51.47435 -0.85714 3983 ft 188 kts 72°
2026-05-06 19:34 51.47551 -0.83618 4041 ft 191 kts 87°
2026-05-06 19:34 51.47565 -0.81508 4003 ft 189 kts 86°
2026-05-06 19:34 51.47580 -0.79401 3898 ft 188 kts 86°
2026-05-06 19:35 51.47595 -0.77306 3675 ft 187 kts 87°
2026-05-06 19:35 51.47608 -0.75218 3431 ft 186 kts 86°
2026-05-06 19:35 51.47621 -0.73153 3190 ft 185 kts 87°
2026-05-06 19:35 51.47634 -0.71087 2931 ft 184 kts 87°
2026-05-06 19:36 51.47647 -0.68809 2653 ft 184 kts 86°
2026-05-06 19:36 51.47655 -0.67433 2487 ft 181 kts 86°
2026-05-06 19:36 51.47669 -0.65005 2187 ft 180 kts 87°
2026-05-06 19:36 51.47680 -0.62917 1923 ft 174 kts 86°
2026-05-06 19:37 51.47689 -0.60960 1686 ft 165 kts 86°
2026-05-06 19:37 51.47698 -0.59263 1479 ft 162 kts 86°
2026-05-06 19:37 51.47708 -0.57345 1259 ft 150 kts 86°
2026-05-06 19:37 51.47712 -0.56378 1122 ft 143 kts 86°
2026-05-06 19:38 51.47722 -0.54260 852 ft 135 kts 85°
2026-05-06 19:38 51.47729 -0.52790 670 ft 132 kts 86°
2026-05-06 19:38 51.47733 -0.51865 548 ft 131 kts 85°
2026-05-06 19:38 51.47742 -0.49722 293 ft 130 kts 86°
2026-05-06 19:39 51.47748 -0.48281 117 ft 129 kts 87°
2026-05-06 19:39 51.47753 -0.47286 85 ft 101 kts 89°
2026-05-06 19:39 51.47755 -0.46534 90 ft 51 kts 90°
2026-05-06 19:39 51.47715 -0.46161 88 ft 20 kts 135°
2026-05-06 19:40 51.47601 -0.46090 87 ft 8 kts 230°
2026-05-06 19:40 51.47591 -0.46199 86 ft 12 kts 278°
2026-05-06 19:40 51.47594 -0.46364 86 ft 17 kts 269°
2026-05-06 19:40 51.47593 -0.46587 86 ft 22 kts 270°
2026-05-06 19:41 51.47589 -0.46829 86 ft 21 kts 263°
2026-05-06 19:41 51.47582 -0.47055 88 ft 20 kts 270°
2026-05-06 19:41 51.47582 -0.47219 90 ft 21 kts 270°
2026-05-06 19:41 51.47581 -0.47510 90 ft 21 kts 270°
2026-05-06 19:42 51.47581 -0.47665 90 ft 21 kts 270°
2026-05-06 19:42 51.47580 -0.47902 90 ft 22 kts 269°
2026-05-06 19:42 51.47579 -0.48158 88 ft 20 kts 270°
2026-05-06 19:42 51.47577 -0.48363 86 ft 17 kts 268°
2026-05-06 19:43 51.47552 -0.48476 88 ft 9 kts 187°
2026-05-06 19:43 51.47485 -0.48477 86 ft 11 kts 180°
2026-05-06 19:43 51.47401 -0.48476 86 ft 13 kts 179°
2026-05-06 19:43 51.47323 -0.48482 86 ft 6 kts 212°
2026-05-06 19:44 51.47316 -0.48558 86 ft 8 kts 269°
2026-05-06 19:44 51.47316 -0.48589 86 ft 0 kts 269°